GFSSE_sfc_thetae_000.txt.gz
Theta_e
322 328 332 340 344 345 346 348 347 346 346 346 347 347 348 348 348 348 349 348 348 349 349 349 348 348 347 346 346 347 347 347 349 349 354 355 355 354 354 356 354 352 355
320 326 331 337 341 342 343 345 345 346 346 346 346 346 347 347 348 348 349 348 347 347 349 349 349 349 348 347 346 346 347 349 350 349 352 353 354 354 353 355 354 352 355
320 322 329 333 334 336 337 339 340 342 343 344 343 343 343 343 344 345 344 345 346 346 347 347 348 348 350 349 349 348 348 350 350 348 348 351 349 354 353 355 355 354 354
316 320 325 329 329 329 331 333 335 336 336 337 338 340 340 340 340 340 340 340 341 343 345 346 346 347 349 349 348 348 350 349 349 346 338 345 348 353 352 354 354 355 354
314 318 321 324 325 325 325 327 329 329 330 332 333 334 334 335 334 334 335 336 337 339 341 343 344 344 345 345 346 346 348 349 348 345 342 341 347 350 351 352 353 354 352
309 315 317 319 322 322 321 322 323 322 323 324 325 326 329 325 323 325 328 329 329 331 333 336 338 338 340 342 343 344 346 348 346 342 345 343 343 350 351 353 353 352 349
304 310 313 315 316 317 318 317 317 317 317 317 317 320 320 316 317 318 320 321 323 324 326 330 332 332 333 337 340 342 345 345 342 340 341 343 345 348 350 351 353 353 353
302 304 307 309 311 312 313 313 313 313 313 313 312 313 313 312 312 313 315 316 317 318 319 323 326 325 326 330 333 335 336 338 338 338 339 341 343 346 346 349 352 352 352
301 301 303 303 304 307 307 308 308 309 309 310 309 308 308 308 308 309 309 312 313 313 314 318 317 318 319 319 320 322 322 329 337 337 338 338 339 344 346 345 351 351 352
299 299 300 302 302 303 304 304 305 306 306 306 306 305 304 304 304 304 305 307 310 310 311 313 313 313 312 312 313 314 314 320 335 336 336 337 339 342 343 344 348 350 351
298 298 300 300 301 301 301 299 302 302 302 302 302 302 304 304 303 303 302 303 306 306 307 309 309 309 309 310 309 310 312 323 325 332 336 334 339 341 342 342 346 348 349
297 297 298 299 299 300 298 300 301 300 301 301 302 302 302 302 301 301 302 301 302 302 304 306 306 305 306 306 307 310 308 311 313 321 329 333 337 339 341 342 344 346 348
297 296 297 298 299 300 299 301 301 301 301 301 301 301 301 301 301 300 300 300 301 301 301 302 303 303 304 305 305 306 306 307 308 312 319 326 330 336 338 340 343 345 346
295 296 296 297 298 299 299 299 300 300 300 300 299 300 299 299 298 298 298 299 299 300 299 300 300 302 303 304 304 305 305 305 306 307 310 315 322 328 332 336 339 343 345
295 295 296 297 297 297 298 298 299 299 299 298 298 298 297 297 296 296 297 297 297 298 297 297 298 299 301 302 303 304 304 304 305 306 307 309 312 314 326 332 336 339 343
295 295 296 296 297 297 297 297 298 298 297 297 297 296 295 295 294 294 295 295 295 295 295 296 296 297 298 300 301 302 302 303 304 305 305 307 311 312 313 325 333 336 339
295 295 295 295 296 296 296 296 297 296 296 295 295 295 293 292 292 292 293 293 293 294 294 295 295 296 296 297 298 299 300 302 303 303 304 305 307 309 311 312 320 332 335
294 294 295 294 295 295 295 295 295 295 295 295 294 295 293 291 291 291 291 292 292 292 293 293 293 293 294 294 295 296 297 299 301 302 304 305 305 306 309 312 317 324 331
294 294 293 294 294 294 294 293 293 293 294 294 294 293 291 290 290 290 290 291 291 290 291 291 291 292 292 293 294 295 296 297 299 300 302 302 303 305 306 308 310 311 325
293 294 293 293 294 293 293 292 292 293 293 293 292 292 290 290 289 289 289 289 290 289 290 290 290 291 291 292 292 291 294 297 299 299 299 300 302 303 305 305 309 308 313
292 292 292 292 292 292 292 291 291 291 291 291 291 289 289 288 288 288 288 288 289 288 288 288 289 289 290 290 289 292 293 296 297 299 300 301 302 303 304 306 308 310 312
291 291 291 291 292 291 291 290 290 289 290 289 290 289 289 287 287 286 286 287 287 287 287 288 288 288 288 290 287 287 288 291 298 296 296 297 300 302 304 305 307 310 312
290 291 291 291 291 290 290 288 287 287 287 287 288 288 288 287 286 286 286 286 286 287 286 286 287 286 284 287 288 287 285 285 289 293 294 295 296 299 302 303 305 309 313
290 292 291 290 289 289 289 287 287 286 286 287 286 286 286 286 285 285 285 285 285 286 285 286 285 285 285 283 286 287 288 287 284 285 291 293 294 295 298 301 303 304 306
291 291 290 290 289 288 288 287 287 285 286 286 284 284 285 285 285 284 284 284 284 285 285 285 284 284 285 283 283 284 285 285 287 285 283 286 291 294 296 297 301 303 304
290 290 290 289 287 287 287 287 286 285 284 283 283 282 283 283 283 283 283 283 283 283 283 284 284 283 283 283 283 283 282 283 283 283 283 284 285 288 291 295 297 303 304

GFSSE_sfc_thetae_003.txt.gz
Theta_e
325 331 336 339 343 344 344 347 347 346 346 346 347 347 348 348 348 349 349 348 347 347 349 349 349 350 348 347 347 346 346 346 346 346 347 352 355 354 354 355 354 351 354
327 328 334 336 338 340 341 342 343 344 345 345 345 344 344 345 346 346 347 348 348 347 348 348 348 348 348 348 349 349 349 350 350 349 348 347 353 355 353 355 354 351 355
324 327 331 333 334 335 335 338 340 341 342 342 343 343 343 342 343 343 342 343 345 346 346 347 347 348 347 347 347 348 348 350 350 349 347 338 345 355 353 355 354 355 355
321 325 326 330 328 329 331 333 333 334 335 337 339 339 339 338 339 339 341 340 341 342 343 345 346 346 346 346 346 347 347 348 349 348 345 336 340 354 351 353 355 355 356
320 322 323 326 325 325 326 327 326 327 330 329 330 333 333 330 330 332 333 333 334 335 337 339 340 340 340 342 344 345 345 347 347 342 342 345 339 345 352 352 353 353 352
318 319 320 322 322 322 321 321 321 321 322 323 326 324 323 322 323 324 325 326 326 328 330 333 334 333 333 336 340 342 344 345 345 338 339 342 345 347 347 352 353 352 350
314 316 316 317 318 318 318 318 318 317 317 317 318 317 317 317 318 318 319 319 320 321 322 326 328 327 327 329 332 334 335 337 341 338 338 340 342 348 346 346 351 352 353
307 311 312 312 314 314 314 313 314 314 313 313 312 313 313 312 313 313 314 315 316 316 316 319 318 318 320 322 323 323 323 324 333 336 338 339 341 345 345 346 347 350 352
306 306 307 308 309 310 309 309 310 310 310 310 309 308 308 308 308 309 309 312 313 314 314 315 315 315 315 315 315 316 316 317 321 333 335 337 338 342 343 344 345 347 350
304 304 304 305 305 306 306 306 307 307 307 306 305 304 303 305 305 305 305 307 310 310 311 311 312 312 312 312 311 312 314 315 320 331 337 337 339 342 342 342 344 345 346
302 302 303 304 304 304 304 302 304 304 303 301 303 302 306 305 304 304 303 304 306 306 308 309 309 309 309 312 314 314 313 311 317 320 325 332 338 340 341 341 344 345 346
300 301 302 302 303 303 300 303 303 302 303 303 304 304 303 304 302 302 304 304 304 303 305 306 307 307 309 305 307 310 306 308 308 310 316 327 332 334 339 339 341 343 345
302 301 300 301 302 302 301 303 303 303 303 303 303 303 303 303 302 302 302 302 303 304 301 302 302 302 303 304 305 305 306 307 307 307 309 319 319 323 330 336 338 340 343
302 301 300 301 301 302 302 302 302 302 302 302 301 300 301 301 300 300 300 300 302 301 300 300 301 302 302 303 304 304 305 306 306 307 308 312 315 315 320 326 333 335 339
301 300 299 300 300 301 301 301 301 301 301 300 300 299 299 298 298 298 298 298 298 298 297 297 299 299 300 301 301 303 303 304 305 305 307 309 313 312 315 318 321 331 336
301 299 299 299 300 300 300 300 300 300 299 299 299 297 296 297 296 295 296 296 296 296 296 296 296 297 298 299 299 300 301 301 303 304 305 306 311 313 312 315 318 321 327
301 300 299 299 299 298 299 299 299 299 298 297 297 296 295 294 294 294 294 294 295 295 294 295 295 296 296 297 297 298 299 300 300 301 303 305 306 310 313 313 315 317 320
300 299 299 297 298 298 298 298 297 297 296 296 295 295 294 293 293 293 292 292 293 293 293 293 293 293 294 294 295 296 297 299 300 300 301 303 305 305 308 312 313 313 316
300 298 297 297 296 297 297 296 296 296 295 295 294 294 293 292 291 291 291 292 292 292 292 292 292 292 292 293 294 294 295 295 297 298 300 301 303 304 304 308 311 312 312
300 298 297 296 296 296 296 295 294 294 294 293 293 292 291 291 290 290 290 291 291 290 290 291 290 292 291 292 291 291 293 296 297 298 299 300 302 303 304 306 307 308 311
299 297 296 295 295 295 294 292 292 291 293 292 292 291 291 290 290 289 289 289 290 289 290 290 290 289 291 292 290 291 291 293 295 299 301 302 303 304 305 306 306 307 308
296 296 296 295 294 294 294 294 293 293 292 292 292 291 291 290 289 288 288 288 288 288 288 289 289 288 290 291 287 287 287 289 296 294 294 296 300 300 301 303 305 306 307
295 295 295 295 294 294 293 292 290 290 289 289 290 290 290 289 289 288 287 287 287 288 287 288 288 287 285 288 288 286 283 283 286 292 293 294 297 297 297 297 300 301 302
295 296 295 294 294 293 292 290 289 288 288 290 291 290 289 289 288 287 287 287 286 287 287 287 287 286 286 284 287 288 289 288 283 282 290 290 293 294 295 295 297 298 299
295 295 295 294 293 292 291 290 290 290 290 290 288 287 288 288 288 287 286 286 285 286 286 286 285 285 285 284 284 285 286 286 287 284 281 285 289 292 293 293 294 295 296
295 294 294 292 292 291 290 290 289 289 288 287 286 286 286 287 286 286 285 285 284 284 284 284 284 284 284 284 284 284 284 283 282 283 283 283 283 286 289 291 291 293 296

GFSSE_sfc_thetae_006.txt.gz
Theta_e
324 331 338 341 343 344 344 347 347 347 347 348 348 347 348 348 348 348 349 349 348 348 349 348 349 350 350 349 348 348 348 348 348 347 346 344 349 353 354 354 352 351 355
323 330 336 337 338 340 342 343 345 345 345 346 345 344 344 345 345 344 344 345 346 347 347 347 348 349 349 348 348 349 348 351 350 348 348 346 344 353 354 354 353 352 354
322 329 329 333 335 336 337 339 339 340 341 342 344 343 342 343 343 343 342 342 342 344 346 346 347 347 346 347 347 347 347 349 348 348 346 343 335 352 354 354 353 354 353
321 324 325 331 330 332 334 334 335 336 337 338 338 339 337 335 335 336 337 336 337 338 340 341 342 340 340 342 344 345 346 346 347 344 339 341 334 348 353 353 354 355 354
318 321 323 328 327 328 329 328 329 331 331 332 334 331 330 331 331 331 331 330 330 332 334 336 336 335 334 336 339 341 343 344 345 340 335 336 340 345 349 350 352 352 350
316 318 322 325 324 324 324 324 324 324 325 327 325 324 322 323 323 322 322 322 322 323 325 330 330 329 329 330 332 334 334 334 336 336 332 335 339 347 347 347 349 349 349
312 314 315 321 321 321 321 321 320 319 319 320 319 318 317 317 317 317 317 318 318 318 319 321 320 320 320 322 325 326 325 325 325 331 334 332 334 346 345 346 347 348 349
310 312 312 316 318 317 317 317 317 316 316 315 314 314 314 314 314 314 315 316 316 316 316 317 316 316 317 317 317 318 318 319 317 319 329 331 336 345 344 347 347 347 348
304 307 307 307 310 313 312 312 314 313 313 311 310 310 310 309 309 310 310 313 313 313 314 315 315 315 315 314 314 313 313 316 310 312 323 330 336 343 341 344 345 344 345
300 301 302 303 305 304 303 309 310 310 309 307 307 305 304 308 307 307 305 308 310 310 311 312 312 312 312 312 312 317 315 316 306 315 320 324 334 337 342 343 344 342 343
299 299 300 300 300 302 302 304 306 306 305 305 305 305 307 301 300 301 305 306 307 308 309 309 310 310 309 309 310 314 313 303 302 304 307 320 328 328 334 339 341 341 342
296 297 298 299 299 300 300 299 299 300 300 300 300 300 300 299 298 301 304 306 305 305 306 306 307 306 304 300 300 305 301 302 302 302 303 317 316 320 324 328 334 338 339
296 297 297 298 298 297 296 299 298 299 298 298 298 298 299 299 297 297 296 296 297 301 297 298 298 298 297 298 299 299 300 300 300 301 305 313 313 316 317 319 323 329 334
298 297 296 297 297 297 298 298 298 297 297 297 296 296 296 295 294 294 294 294 294 294 293 293 294 295 295 297 297 297 298 299 299 300 302 310 311 313 315 317 319 320 323
298 297 295 295 296 298 296 296 297 295 296 296 296 294 294 294 292 293 292 292 292 292 291 291 292 293 293 295 296 296 296 296 296 298 299 307 310 311 313 316 317 319 321
299 297 296 295 296 297 296 295 296 295 295 295 294 293 293 292 290 291 291 291 291 291 290 291 291 291 292 293 294 295 295 295 296 296 297 299 309 310 310 313 315 317 319
300 297 295 295 296 295 295 295 295 294 295 293 293 293 291 291 290 289 289 289 290 290 289 289 290 290 290 292 291 293 294 294 295 295 296 297 299 306 309 310 312 314 316
298 296 295 297 295 294 294 294 294 292 292 292 292 291 291 291 290 288 288 288 289 289 288 288 288 288 288 289 289 290 291 293 293 294 294 295 297 299 303 307 308 310 312
297 295 294 293 293 293 293 293 292 292 291 291 290 290 290 290 290 288 287 287 288 287 287 288 287 287 286 287 289 290 289 289 291 293 293 295 296 298 298 303 309 310 310
296 294 294 293 292 293 292 290 290 290 290 289 288 289 289 289 289 287 287 287 287 286 286 287 286 286 286 287 289 288 288 290 290 290 291 294 296 297 298 299 300 302 310
295 293 293 292 291 292 290 288 287 288 288 287 289 289 289 288 288 286 285 285 285 285 285 286 286 285 285 286 285 285 286 288 288 290 291 292 294 294 295 297 298 299 301
294 293 292 292 292 292 291 289 288 288 288 287 288 288 288 288 287 286 285 284 284 283 284 284 285 284 284 285 282 282 280 283 287 287 288 289 291 293 295 295 293 294 296
293 292 292 292 292 292 290 289 287 286 286 285 285 286 287 287 286 286 284 284 283 283 283 283 283 283 281 283 283 282 279 278 282 285 286 287 287 288 289 291 294 293 293
293 292 292 292 291 291 290 288 286 284 282 284 285 286 286 286 285 285 285 284 283 283 282 283 284 282 281 280 282 285 283 283 279 279 283 285 286 287 288 289 290 292 291
292 292 292 291 291 290 289 288 286 283 284 285 284 284 283 284 284 283 284 283 282 282 282 282 282 281 281 280 280 280 280 281 282 280 278 280 284 285 287 287 288 289 290
292 291 291 290 290 290 288 287 286 285 284 283 282 282 282 282 282 282 283 281 281 281 280 281 281 281 280 280 280 280 280 279 279 278 278 278 279 282 284 286 286 287 288

GFSSE_sfc_thetae_009.txt.gz
Theta_e
324 331 343 344 344 345 347 348 348 348 348 347 347 346 347 347 346 346 347 348 348 348 348 348 349 350 349 348 348 348 349 348 349 348 347 347 344 348 353 353 351 350 355
326 331 340 340 341 343 345 346 346 346 346 346 345 345 344 344 344 344 342 344 345 347 348 348 348 347 347 347 347 347 348 347 348 347 346 346 346 344 353 352 352 351 353
326 329 332 338 338 339 340 341 343 343 344 345 344 342 341 341 340 341 339 338 339 341 342 344 343 341 341 343 345 346 346 346 346 345 342 339 336 353 353 352 353 354 353
323 324 327 335 336 337 336 337 338 338 338 338 339 338 335 334 335 335 335 334 335 336 338 339 338 336 336 338 340 342 343 343 343 343 335 336 339 349 349 351 352 352 351
319 321 326 332 333 334 333 333 335 334 334 335 333 332 332 330 329 328 327 326 326 328 333 334 332 331 331 332 334 336 336 335 336 339 334 332 335 345 348 347 348 349 349
316 319 327 329 329 329 328 329 330 329 332 327 325 325 325 323 323 321 321 320 321 321 324 324 322 322 321 323 325 328 328 328 329 327 332 334 332 341 344 347 348 347 346
312 315 320 327 326 326 325 325 324 324 325 322 321 320 319 318 318 318 318 318 318 318 319 319 319 318 318 318 318 318 319 318 313 316 322 328 330 343 343 346 346 347 348
310 312 315 322 324 323 322 322 321 320 319 318 318 316 316 315 315 315 316 316 316 316 316 317 316 316 316 316 315 314 313 315 310 307 310 321 333 341 342 346 344 344 344
309 308 308 310 315 319 320 319 318 317 316 315 314 313 312 311 311 310 312 313 314 314 314 315 314 314 314 315 314 314 314 317 303 307 313 320 326 333 340 344 343 342 342
303 305 304 304 305 304 307 316 316 314 312 310 310 309 309 309 309 307 307 310 311 312 312 312 312 312 310 310 311 311 311 308 300 301 304 306 320 324 330 335 340 342 341
299 300 301 301 301 301 302 308 312 311 309 308 307 308 306 298 299 301 306 308 308 308 308 309 308 307 306 305 307 308 307 301 300 301 301 312 316 319 321 323 328 332 337
295 296 299 298 299 299 302 301 299 301 299 300 299 298 299 297 299 301 304 304 304 303 304 305 305 303 300 297 297 301 298 299 299 300 301 310 313 315 317 319 319 322 326
295 295 297 297 297 297 297 297 296 296 296 297 296 297 297 296 295 295 294 294 294 297 293 294 294 294 294 294 295 295 296 296 296 298 301 307 310 313 315 317 318 319 320
294 295 295 296 296 295 296 297 296 296 295 295 295 296 295 293 292 292 292 291 291 291 290 290 291 292 292 293 294 294 294 294 294 296 298 304 307 310 314 316 317 318 319
295 295 295 295 295 295 296 296 295 295 295 294 293 294 294 292 290 291 290 290 289 289 289 289 290 290 291 292 293 293 293 293 293 294 295 301 304 307 310 313 315 317 318
297 296 295 295 295 296 294 294 294 294 294 294 291 291 292 291 289 290 289 289 288 288 288 288 288 288 289 290 291 292 292 292 293 293 294 294 302 304 307 310 313 315 316
298 297 294 295 295 296 294 294 294 293 293 292 291 291 291 290 289 288 288 288 287 288 288 288 288 288 288 289 289 290 291 292 292 292 293 294 295 301 304 307 309 311 313
297 295 295 296 295 294 293 293 293 292 291 291 290 290 290 290 289 287 287 287 287 287 286 286 286 286 286 286 287 288 289 290 290 290 291 292 293 295 300 305 308 309 311
298 295 294 294 293 294 292 292 291 290 290 290 289 289 289 289 288 287 286 286 287 286 286 286 286 285 284 285 287 288 288 288 288 290 290 292 293 295 296 301 306 307 309
298 295 294 294 293 293 292 290 289 289 288 288 287 288 288 288 288 286 285 286 286 285 285 285 284 285 284 285 287 287 287 287 287 286 288 291 292 294 295 296 297 299 304
294 293 292 292 292 293 291 289 288 288 286 286 286 288 287 287 287 286 285 285 285 284 284 285 284 284 284 284 283 283 284 286 286 286 286 286 288 291 293 294 293 293 294
293 293 292 292 292 292 292 291 288 288 285 286 287 287 287 287 286 286 285 284 284 283 283 283 283 282 283 283 281 280 279 282 285 286 286 287 286 288 289 290 290 292 292
292 291 292 292 292 292 291 289 286 286 285 284 285 285 286 286 286 285 284 283 283 283 282 282 282 282 281 281 282 281 278 277 281 283 285 285 285 285 286 288 290 290 290
292 292 292 291 291 291 289 289 286 287 286 286 287 286 285 286 285 284 284 283 282 282 282 281 283 281 281 279 281 284 282 281 278 277 282 283 285 285 286 285 287 289 288
292 291 291 290 290 290 290 289 287 286 286 283 283 284 284 283 284 283 283 282 281 281 281 281 281 280 280 280 280 280 280 279 280 278 276 278 282 283 284 285 286 286 287
290 290 290 289 290 290 289 289 287 286 283 282 283 284 283 283 282 282 282 281 280 280 280 280 280 280 279 279 279 280 279 278 278 277 276 277 277 280 282 283 284 284 285

GFSSE_sfc_thetae_015.txt.gz
Theta_e
324 332 347 347 347 348 349 347 347 347 348 348 348 348 347 346 346 347 347 347 348 349 349 347 346 346 347 347 346 346 346 345 344 342 343 344 349 345 346 350 349 348 352
328 333 345 347 347 347 347 347 347 348 347 346 345 345 345 344 342 341 343 342 345 346 346 344 342 342 342 344 345 345 344 342 342 342 341 339 344 353 351 351 351 350 352
330 334 339 345 346 347 347 347 347 347 345 344 343 343 343 341 339 338 337 339 340 341 342 340 338 337 337 337 338 339 337 337 337 337 338 332 333 350 348 350 350 349 350
329 331 334 342 345 345 346 346 346 346 344 343 341 339 338 336 336 335 334 334 336 337 338 335 332 331 330 331 332 332 331 329 328 327 326 330 332 341 347 347 347 345 346
324 327 331 340 342 342 341 341 341 340 338 339 336 337 335 334 332 329 328 327 331 331 328 326 325 323 323 323 323 323 321 321 317 310 310 317 323 336 345 345 344 344 345
320 323 331 338 340 339 339 340 338 338 336 335 334 333 332 329 326 324 324 324 325 324 323 322 320 320 320 319 318 318 319 317 312 305 306 313 320 341 343 344 344 345 344
317 320 326 337 338 337 337 338 337 336 335 333 331 329 327 324 323 322 321 321 321 321 320 319 319 319 319 319 317 317 316 312 301 302 305 311 315 334 340 344 343 343 343
315 318 322 330 333 334 335 335 335 333 331 328 326 324 323 321 321 320 319 319 319 319 319 318 318 317 317 315 314 313 312 309 300 299 300 306 321 329 332 335 336 339 342
314 315 316 320 324 329 331 331 332 329 327 324 322 321 320 319 318 318 317 318 318 318 318 316 314 313 313 313 312 310 309 308 296 298 301 305 317 323 326 327 328 329 333
309 311 311 313 316 316 318 325 326 326 324 321 321 319 318 315 315 315 317 317 316 316 315 312 311 309 310 309 308 306 305 303 296 296 298 304 315 320 322 322 323 324 325
307 307 307 308 309 309 310 315 320 322 322 320 318 317 312 301 303 304 312 314 313 312 312 309 307 305 303 304 304 303 300 294 294 294 296 308 312 316 318 319 320 321 322
303 304 305 304 304 304 308 308 307 308 307 305 304 302 297 296 298 302 307 309 308 307 308 306 303 301 296 292 292 296 292 292 292 293 294 305 309 313 315 317 319 319 320
305 304 304 303 301 301 302 302 301 300 299 298 298 296 294 296 297 295 294 292 291 295 290 292 291 290 290 290 290 290 290 290 290 291 295 302 306 309 312 314 316 318 319
299 302 302 302 300 298 298 300 298 297 295 295 294 295 293 293 291 290 290 289 288 288 288 288 288 289 289 290 290 289 289 289 289 290 292 299 303 307 310 312 313 315 318
297 299 300 300 300 298 296 297 296 295 296 294 293 294 293 291 290 289 289 288 287 287 287 287 287 287 288 289 289 288 288 289 289 290 289 297 301 305 308 311 313 314 315
295 296 298 299 299 298 296 297 296 295 294 293 292 293 292 291 289 289 288 287 286 286 286 286 286 286 286 287 287 288 288 288 289 288 289 289 299 302 306 310 312 314 315
296 295 295 297 298 297 295 295 295 294 295 293 292 292 292 290 289 288 287 286 286 286 286 286 286 285 285 286 286 287 287 288 288 288 288 289 291 298 303 308 310 311 312
296 294 295 297 296 296 296 295 294 294 294 293 291 290 291 290 289 287 286 286 286 285 285 285 284 284 284 284 284 285 285 287 287 287 288 289 289 292 296 306 306 307 309
297 296 294 295 295 295 295 294 294 293 293 293 290 289 289 289 288 287 286 285 285 285 284 285 283 283 282 283 284 284 284 284 285 287 287 287 288 289 292 297 298 300 305
297 297 295 295 295 295 295 293 291 291 292 291 290 289 288 288 287 286 285 285 285 284 284 283 283 283 283 282 284 284 283 284 285 285 285 286 287 288 288 288 289 291 297
294 295 295 293 294 294 292 290 291 291 290 290 290 289 288 287 287 285 284 284 284 283 283 283 283 282 282 281 281 281 282 284 284 283 283 284 285 286 286 287 288 288 287
295 295 294 294 293 294 294 294 292 293 289 291 289 288 287 287 286 285 284 283 283 282 282 282 282 281 281 281 279 280 278 281 283 283 283 284 283 284 285 285 285 286 286
292 293 294 294 293 294 294 292 286 285 284 284 285 287 287 286 286 285 284 283 283 282 281 281 281 281 280 280 280 279 277 277 278 281 281 282 282 283 282 283 284 285 286
293 292 293 293 292 293 293 291 290 290 288 288 289 288 287 286 285 284 284 283 282 282 281 281 281 280 280 279 280 282 280 280 277 276 279 280 281 281 281 282 282 284 285
291 290 291 291 291 292 292 291 291 290 291 287 285 284 285 284 284 284 283 282 281 281 281 281 280 280 280 279 279 279 279 278 278 277 276 278 279 280 281 281 282 282 283
288 288 289 290 290 291 291 290 290 290 286 285 284 285 285 284 283 283 283 281 281 281 280 280 280 280 280 279 279 279 279 277 277 276 276 276 276 278 280 281 281 281 282

GFSSE_sfc_thetae_021.txt.gz
Theta_e
328 336 348 351 350 350 348 348 347 347 348 349 348 347 349 349 348 348 348 348 348 349 347 346 345 346 346 345 344 342 340 340 341 342 342 344 351 352 351 352 350 350 352
330 338 347 349 351 350 350 349 347 347 349 349 348 346 344 347 346 345 345 347 347 347 345 343 342 341 341 340 340 338 336 335 334 336 335 337 345 350 349 349 348 346 349
331 337 346 348 350 350 350 349 349 348 348 348 347 346 343 342 342 342 342 343 344 344 341 339 336 336 336 335 334 332 331 328 326 325 329 334 340 348 347 347 346 345 345
332 338 344 345 349 350 349 349 348 349 349 346 346 346 343 340 337 338 339 339 339 339 336 334 333 331 330 329 327 328 327 323 322 321 327 331 338 344 347 345 344 344 345
333 338 341 344 347 348 349 349 349 349 348 346 344 342 339 338 336 335 336 337 336 335 333 330 327 326 325 324 325 323 322 320 319 320 323 330 337 344 346 345 343 343 344
332 336 339 344 346 348 348 348 348 348 346 344 340 339 339 336 334 332 332 335 333 330 328 325 323 323 322 322 321 318 318 315 313 316 321 325 334 340 341 344 344 344 343
330 333 338 342 345 346 345 344 344 342 342 339 336 338 337 334 331 328 329 329 327 325 323 322 322 321 319 319 318 316 313 311 308 312 315 321 331 334 335 337 337 337 338
328 328 333 335 339 339 341 343 343 342 341 337 335 335 334 330 328 326 326 325 324 322 322 322 320 319 318 317 315 313 310 306 304 308 312 317 325 330 331 331 332 333 332
324 325 328 333 335 333 336 337 336 339 339 336 334 334 331 327 325 324 323 323 323 322 321 319 318 318 316 314 312 310 307 305 302 306 309 315 322 325 326 327 327 328 329
320 322 324 327 330 332 334 331 333 335 335 334 333 329 326 325 325 324 323 323 322 321 318 317 316 315 313 311 308 306 303 301 300 304 307 312 316 320 322 323 324 325 325
314 317 320 323 325 326 328 328 329 330 330 329 326 323 320 317 318 317 318 323 321 318 316 314 313 311 309 307 305 302 298 297 298 300 305 310 314 317 319 319 320 321 322
313 314 316 319 320 320 320 324 326 324 325 322 319 316 312 311 311 311 316 319 319 316 313 311 308 303 297 296 297 297 296 296 296 297 302 307 311 314 316 317 319 320 321
314 314 313 315 317 317 318 317 318 318 317 315 313 309 307 306 309 309 309 307 307 305 304 302 297 296 296 296 295 295 295 295 296 296 301 306 310 312 314 315 318 320 321
309 312 312 312 313 314 314 315 314 314 312 310 309 306 304 303 305 304 303 302 301 299 297 295 295 295 295 294 294 294 294 294 295 296 299 304 309 312 315 317 318 318 320
306 310 311 311 312 312 310 312 311 311 310 309 306 303 301 301 302 300 299 296 295 294 294 294 294 294 294 293 293 293 293 294 294 295 297 304 308 312 315 317 318 319 319
306 307 309 309 311 310 310 310 310 309 308 305 304 302 299 300 300 299 295 293 293 293 293 293 293 293 293 293 292 292 292 293 293 294 296 303 307 311 314 316 317 318 319
303 305 306 308 310 309 309 308 309 308 304 304 303 300 298 298 297 297 294 292 292 292 292 292 291 291 291 291 291 291 292 292 293 293 294 297 303 310 312 314 315 319 319
301 300 304 306 307 308 309 307 307 306 304 304 301 300 298 297 296 294 293 292 292 291 291 291 290 290 291 291 290 290 291 292 292 292 293 296 298 299 305 308 308 308 308
300 300 299 304 305 306 307 307 306 304 303 302 300 298 297 296 295 294 293 292 291 290 290 290 289 290 289 289 289 289 290 291 291 290 293 293 294 293 293 296 297 299 303
300 300 299 299 303 304 305 304 302 299 302 300 299 297 297 296 294 293 292 291 290 289 289 289 289 288 289 289 287 288 289 290 291 291 291 290 291 291 290 291 292 294 298
297 297 298 296 299 301 301 298 297 297 298 297 298 297 296 296 294 293 292 290 290 289 289 289 288 288 287 287 288 287 288 288 288 289 290 289 289 289 289 290 290 291 293
297 296 297 296 297 299 300 300 300 300 298 298 297 296 295 295 293 292 291 290 289 288 288 288 288 287 287 286 288 288 285 287 288 288 288 287 287 288 288 288 288 289 291
295 295 295 296 296 297 299 298 291 293 291 293 293 293 293 294 293 292 291 290 289 289 288 288 288 288 286 285 285 290 284 287 285 286 287 287 287 287 287 287 287 288 289
296 295 295 295 295 295 297 296 295 295 293 294 295 294 293 292 292 292 291 290 289 288 288 287 287 288 287 286 285 285 286 287 286 283 285 286 286 286 286 287 287 287 288
293 293 293 294 294 295 295 296 294 295 295 293 295 293 292 291 291 290 290 289 288 288 288 287 286 286 287 287 286 284 284 284 284 285 284 283 285 285 286 286 286 287 287
291 291 291 291 291 292 294 294 293 294 292 291 290 291 290 289 289 289 289 288 288 288 287 286 287 287 286 286 286 285 285 284 283 283 283 283 284 284 285 285 285 286 287

GFSSE_sfc_thetae_024.txt.gz
Theta_e
333 341 349 352 351 350 349 349 349 349 349 349 347 349 349 348 348 348 348 347 349 348 346 345 345 346 345 343 341 340 339 339 341 341 344 350 350 349 348 348 348 349 351
333 342 347 351 352 350 350 349 348 348 349 348 348 347 348 347 346 346 348 349 348 346 345 343 342 342 341 339 339 336 335 333 334 334 337 347 350 349 346 346 347 345 349
332 343 348 350 352 352 351 349 347 348 349 349 347 346 343 343 341 343 345 346 345 344 341 339 337 336 336 335 332 331 330 328 327 330 337 343 346 348 345 345 345 345 346
333 342 346 346 351 351 350 349 348 348 348 348 347 345 344 341 338 339 341 342 341 340 338 336 334 332 330 328 328 328 326 325 326 329 336 340 341 345 346 344 343 343 343
334 340 344 345 349 351 350 349 349 348 350 349 347 344 342 339 336 336 337 337 337 336 334 330 328 327 325 325 323 323 322 322 322 332 334 338 341 344 346 344 343 343 344
334 339 341 345 349 350 350 349 349 350 349 348 343 341 340 338 335 334 335 336 335 333 330 327 325 324 323 321 319 319 317 316 321 327 331 334 339 338 342 342 342 342 343
334 339 342 343 346 347 349 349 349 349 347 344 341 339 340 337 335 332 333 333 331 328 325 324 324 321 320 319 316 315 313 313 316 321 326 331 334 334 336 337 337 337 338
334 338 341 338 341 345 346 346 346 345 344 341 338 336 338 336 332 329 330 329 327 324 323 323 321 319 318 317 315 312 310 308 313 315 321 326 328 330 331 331 332 333 332
335 337 339 341 340 334 338 340 341 342 342 340 338 337 336 333 330 327 327 325 324 323 323 321 319 318 316 314 312 309 307 306 309 312 313 319 322 325 327 327 327 329 329
333 335 337 339 339 339 337 332 333 335 337 337 334 332 331 329 328 327 325 325 323 323 321 319 318 316 313 311 308 305 303 305 306 308 311 314 317 321 323 323 324 325 326
328 332 334 336 337 337 336 333 329 331 332 332 331 327 324 326 324 322 322 325 323 320 318 317 315 313 310 307 304 302 301 303 303 305 309 311 316 318 318 319 320 322 323
324 326 330 332 333 334 333 335 336 334 334 333 333 329 326 323 322 320 318 322 323 319 316 314 311 306 301 303 302 300 302 302 302 302 306 308 311 314 316 317 319 320 322
323 325 326 328 330 331 332 333 333 335 330 332 331 327 324 320 319 318 319 319 319 314 313 310 304 302 301 302 302 301 301 301 302 302 304 308 310 313 314 316 319 321 320
319 322 324 325 327 329 331 330 331 331 331 329 327 323 320 317 317 316 317 317 315 313 310 305 302 302 301 300 300 300 300 301 301 302 304 306 310 313 315 318 319 320 321
316 319 322 324 324 326 327 327 328 328 327 326 323 320 318 316 314 313 314 313 312 309 305 301 301 300 300 299 299 299 299 299 300 301 305 306 310 313 316 318 319 320 321
314 316 319 321 322 324 324 325 325 325 325 324 321 318 316 314 312 311 311 309 307 304 302 301 300 300 299 299 298 298 298 299 299 300 304 308 310 313 315 318 319 320 322
312 314 316 318 320 321 322 323 323 323 322 321 319 317 314 311 309 308 308 306 303 301 300 300 299 299 298 297 297 297 297 298 299 299 302 308 311 311 316 317 319 321 319
311 311 313 314 316 319 320 321 321 321 319 318 317 315 312 310 308 306 305 303 300 299 299 298 297 297 297 297 296 296 297 298 297 298 300 306 308 310 307 308 309 311 310
310 310 310 312 313 316 318 319 319 319 318 317 316 314 311 308 306 304 304 302 299 298 298 297 297 297 296 296 295 296 297 297 296 297 300 302 301 302 302 298 301 303 304
309 309 309 309 311 313 315 317 317 316 315 315 314 312 310 307 304 303 302 301 298 297 297 297 296 296 297 296 292 293 295 296 296 297 296 297 296 295 296 296 298 299 301
308 307 307 307 307 310 311 311 313 312 311 312 312 311 309 307 304 303 302 300 298 297 297 296 296 294 294 295 294 293 293 294 294 295 295 295 294 293 294 295 296 297 300
305 306 305 305 305 307 309 310 311 310 310 310 310 309 308 306 304 302 301 299 298 297 296 296 295 294 295 294 294 295 291 290 292 293 293 293 293 293 292 292 293 294 297
302 303 302 303 304 304 306 307 307 305 306 305 306 305 305 304 303 301 300 299 298 297 296 296 295 295 293 293 295 296 291 293 291 291 291 292 291 292 292 291 291 292 295
299 300 301 301 301 302 303 304 304 302 301 302 303 303 303 302 302 301 300 300 298 297 297 297 296 296 297 292 292 291 293 295 292 288 290 291 291 290 291 291 291 291 293
297 297 299 300 300 299 301 302 302 301 303 303 302 302 301 300 300 300 299 299 298 297 297 297 295 295 296 296 294 291 291 291 292 294 289 288 290 290 291 290 291 291 291
297 297 296 297 297 298 299 300 300 300 300 300 299 299 299 299 298 298 298 298 297 296 296 296 295 295 295 295 296 293 292 291 290 291 291 290 289 289 290 290 290 291 291

GFSSE_sfc_thetae_027.txt.gz
Theta_e
334 343 349 351 351 351 350 349 349 349 349 349 348 348 348 346 347 346 347 348 348 347 346 346 346 346 345 342 340 339 339 340 341 344 351 351 349 347 346 348 348 349 352
336 344 348 352 352 351 350 350 350 350 350 348 347 349 349 348 347 349 348 349 348 346 344 343 342 342 341 339 337 335 334 334 335 337 343 350 350 346 345 345 347 347 350
334 344 348 350 352 351 351 350 348 349 349 348 348 346 347 345 344 346 347 347 346 344 342 340 338 337 336 333 332 332 331 330 331 333 338 343 346 346 344 344 345 345 347
333 343 346 348 351 351 351 350 348 349 349 348 347 345 343 342 339 340 344 344 343 340 339 337 335 333 330 329 329 328 327 327 329 333 335 338 341 346 345 344 343 344 345
332 342 345 347 351 352 351 350 348 349 350 349 347 345 343 340 337 336 338 337 337 337 335 332 330 328 326 325 323 323 322 322 324 331 335 338 342 345 345 344 343 343 344
332 339 344 347 350 351 351 350 348 348 349 350 349 345 342 337 335 334 335 336 335 334 331 328 326 325 323 321 319 319 318 317 323 329 332 335 338 340 343 342 341 341 342
332 336 343 345 348 349 350 350 349 348 350 349 346 344 340 339 335 333 333 334 334 331 327 325 325 321 320 318 316 315 313 315 319 324 328 332 332 335 337 337 337 337 337
332 336 338 339 342 345 348 348 348 349 348 345 343 340 339 339 335 333 332 332 330 327 325 324 321 320 318 316 314 312 310 312 314 317 324 327 328 330 331 332 333 333 333
334 335 338 340 340 337 341 343 345 345 344 343 341 337 338 336 334 331 330 329 327 324 324 323 320 318 316 314 312 309 307 311 310 313 314 319 322 326 326 327 328 329 329
333 335 337 338 339 340 342 334 336 338 339 338 337 334 332 332 331 329 328 327 325 324 322 321 319 317 314 311 308 305 303 309 307 309 312 315 318 321 323 324 325 325 326
330 334 336 337 338 337 338 336 331 332 334 334 332 329 327 331 328 325 324 326 325 323 321 319 317 315 311 307 304 301 304 304 304 307 309 312 316 317 318 319 320 322 324
326 330 333 335 336 337 335 336 335 335 336 336 334 333 332 331 326 322 320 323 325 322 319 318 315 311 307 305 302 303 304 304 304 304 306 309 312 314 316 318 319 321 323
324 327 330 333 335 336 336 336 336 334 332 331 332 334 332 328 324 322 322 321 321 316 315 313 308 304 305 305 304 304 303 304 303 303 305 310 313 313 315 317 320 322 321
319 324 327 329 332 334 335 334 334 334 334 330 331 334 330 325 323 320 320 321 322 317 315 313 307 307 304 303 303 302 302 303 302 303 304 307 312 314 315 318 319 320 321
316 320 325 328 328 331 332 333 332 332 333 333 333 331 328 323 320 319 319 319 319 315 313 308 306 304 304 302 301 301 301 301 301 302 307 309 313 315 316 318 320 321 322
315 318 321 325 327 328 329 331 331 331 331 331 330 329 326 322 319 317 317 317 316 313 310 306 304 303 303 303 300 300 300 300 300 302 305 309 313 316 316 318 320 321 321
314 316 319 322 325 326 327 329 329 329 328 329 328 327 323 320 317 315 314 314 313 310 306 304 303 303 302 301 300 299 299 300 300 301 304 310 312 311 316 316 317 321 318
313 314 316 317 321 324 325 326 327 327 326 327 326 324 321 319 316 313 312 311 310 305 303 302 301 300 300 299 299 298 299 299 299 300 303 308 312 311 307 308 312 314 313
312 312 314 316 318 320 323 324 325 326 325 324 324 322 320 317 314 311 310 309 307 303 301 301 300 300 299 299 299 298 299 299 299 298 301 305 306 308 306 302 302 303 306
311 311 311 312 313 317 319 321 322 323 323 323 321 320 319 316 313 310 308 307 304 301 300 300 300 300 300 299 294 295 297 299 298 299 300 301 301 299 300 300 301 301 303
309 309 309 309 311 311 314 315 317 317 319 319 319 319 317 314 312 309 307 306 303 300 300 300 299 298 298 298 296 295 295 296 296 297 298 298 297 296 297 298 299 300 302
303 304 305 306 307 308 311 313 314 315 317 317 317 317 316 314 311 308 306 304 302 300 299 299 298 296 298 297 296 296 291 291 294 295 296 295 295 295 294 294 295 296 301
300 301 302 304 305 306 307 309 310 312 308 310 311 313 313 312 310 308 305 303 301 300 298 299 298 297 295 296 298 298 295 293 291 293 294 294 294 293 293 293 293 294 297
299 301 301 302 302 302 304 306 306 305 303 306 307 310 310 310 308 307 305 304 302 299 298 298 298 297 297 293 295 296 297 298 293 287 292 292 292 291 292 292 292 293 295
299 300 300 299 299 301 302 303 303 303 304 305 305 306 307 307 306 306 305 303 301 300 299 298 296 296 297 296 293 294 293 294 295 295 288 288 291 291 292 292 292 292 293
298 298 298 297 297 298 298 299 300 300 300 301 303 302 303 303 303 303 303 302 301 300 298 298 297 296 296 296 295 295 293 292 291 292 293 290 288 290 291 291 291 291 292

GFSSE_sfc_thetae_030.txt.gz
Theta_e
330 342 350 353 353 352 352 351 351 351 349 348 348 348 347 346 346 348 350 350 350 348 348 347 346 345 343 340 340 339 340 341 343 350 351 350 347 346 347 349 349 350 352
334 342 348 352 353 353 352 351 351 351 350 349 348 348 348 347 348 347 348 350 348 346 344 344 343 342 341 337 336 335 335 335 337 339 348 349 348 346 345 347 348 348 351
334 343 348 350 353 352 351 351 351 351 351 348 349 349 348 347 347 348 350 348 346 345 342 341 339 338 336 333 333 333 332 332 333 335 338 342 342 346 344 344 347 346 349
334 343 345 348 351 352 351 350 350 351 351 349 348 346 345 344 342 342 347 345 343 341 339 338 336 333 330 330 330 330 329 329 331 334 331 339 342 346 345 344 344 345 345
329 343 345 347 351 351 351 350 350 350 351 350 347 346 344 341 339 338 339 339 340 340 335 334 332 329 328 326 325 324 324 325 329 328 330 335 341 345 345 345 343 343 343
328 341 343 348 351 351 351 350 350 350 351 350 349 346 344 340 336 336 337 337 336 335 332 330 328 326 324 321 321 320 319 321 326 323 326 334 333 341 343 342 340 341 340
327 335 344 346 349 351 351 350 349 349 350 350 349 348 340 338 336 333 334 335 335 333 329 328 325 323 321 318 316 315 314 317 314 318 323 325 328 336 337 338 337 337 337
327 333 342 340 343 347 349 349 348 348 349 350 348 345 342 338 336 333 333 334 333 330 327 327 322 321 319 317 314 312 312 316 312 313 320 319 330 331 332 333 333 333 334
327 330 334 340 340 338 342 344 345 346 347 347 344 342 340 339 335 333 333 332 331 327 326 324 321 319 317 315 311 309 310 315 304 307 315 313 323 326 327 328 329 330 330
326 329 330 335 338 338 339 336 338 341 342 341 338 335 333 333 332 331 329 331 328 325 325 322 320 318 316 312 308 304 306 311 301 304 309 312 320 322 323 324 325 326 327
324 327 330 331 334 335 337 335 332 334 335 333 331 329 326 326 326 324 324 327 327 326 323 321 319 316 313 308 304 303 307 298 299 301 305 314 316 317 318 320 321 323 325
319 324 328 330 331 332 335 334 334 333 332 331 331 328 327 325 323 322 319 324 326 325 323 320 318 314 309 299 297 303 298 297 297 298 302 312 313 315 317 318 320 322 324
318 322 326 328 330 330 331 329 332 332 329 332 332 329 327 325 319 315 314 316 314 315 311 312 308 303 299 297 297 296 297 296 295 298 304 310 314 314 315 317 321 323 321
311 319 324 326 328 328 329 327 327 328 326 329 326 328 327 321 316 313 313 313 312 309 307 305 300 299 298 298 298 297 296 295 295 297 302 309 313 314 317 320 320 321 322
309 311 319 324 325 327 327 326 326 326 328 327 325 327 327 319 314 312 311 312 312 308 307 303 298 298 297 296 297 296 296 295 295 296 300 310 314 316 317 319 321 322 322
308 310 314 322 324 324 325 325 326 324 325 327 326 327 325 318 313 311 310 310 310 307 304 300 298 296 296 296 295 296 295 295 295 296 300 305 315 318 317 320 322 324 323
307 309 311 316 321 321 323 324 324 324 323 324 325 323 321 316 312 310 308 308 308 305 302 298 297 296 295 296 294 294 294 294 295 296 298 304 307 312 318 317 319 323 320
305 308 310 313 316 319 319 320 323 321 321 321 321 320 319 316 312 308 307 306 306 302 298 296 294 294 293 293 292 292 292 294 294 295 297 302 306 304 306 312 317 319 317
304 304 307 311 312 315 318 318 319 320 319 318 319 317 316 315 311 307 305 305 303 298 295 295 293 293 292 291 292 291 292 292 293 295 295 300 300 301 298 304 305 306 313
301 302 303 305 309 312 313 315 315 316 316 316 315 315 314 313 310 305 303 303 300 296 294 294 292 293 292 292 292 292 290 292 291 291 294 298 296 294 295 295 295 298 305
300 300 301 301 303 306 307 308 310 310 312 313 313 313 313 311 309 305 301 300 298 296 295 294 293 292 291 291 289 288 289 290 290 291 292 292 292 292 291 292 292 294 298
297 298 299 300 301 302 304 306 307 308 309 311 312 311 311 309 307 305 301 299 296 294 293 294 292 291 291 291 288 287 284 286 288 290 290 291 290 290 290 291 290 291 295
295 295 297 298 299 300 301 303 303 303 301 301 305 306 308 308 306 304 301 298 296 294 294 293 293 292 288 289 291 289 285 284 284 287 288 289 289 288 288 289 290 291 292
294 295 295 296 296 299 299 300 299 299 297 298 300 303 305 306 305 303 301 299 296 294 293 292 293 293 290 289 288 291 289 289 285 281 285 287 287 288 287 287 287 289 291
294 293 293 294 295 295 296 296 296 296 297 297 298 297 298 300 301 302 301 298 297 295 292 292 291 290 291 289 290 286 286 286 287 284 280 282 285 286 287 287 287 287 290
292 291 292 292 292 293 294 293 293 292 292 293 294 294 295 296 297 298 299 298 297 295 292 291 291 290 290 290 290 287 287 286 285 285 284 281 282 284 286 287 287 287 288

GFSSE_sfc_thetae_033.txt.gz
Theta_e
334 343 351 354 354 355 355 355 353 352 350 350 350 349 348 348 349 349 352 351 349 348 347 346 346 344 341 340 339 340 341 343 346 351 350 349 346 347 348 350 350 350 352
337 345 349 353 354 354 354 353 352 351 349 349 349 348 347 347 346 347 349 350 347 345 344 344 344 343 339 337 337 336 337 338 339 342 348 348 347 345 346 347 349 349 351
338 344 348 351 353 353 352 352 352 352 349 349 348 349 348 347 348 347 348 349 346 345 342 341 340 338 335 334 334 334 334 334 335 336 337 341 341 345 344 345 346 348 348
339 343 346 348 352 352 352 351 351 352 352 349 350 350 348 346 345 347 348 345 344 342 340 339 337 333 332 331 330 330 330 331 332 334 333 341 343 346 345 343 345 344 343
339 342 346 347 351 352 351 350 350 350 350 351 349 347 345 343 341 341 344 343 342 339 336 334 333 330 327 326 326 325 325 328 331 329 332 334 341 344 345 344 342 342 342
337 341 344 348 351 351 350 350 350 350 351 350 349 346 344 342 339 340 339 340 338 336 334 331 329 327 324 322 321 320 321 324 325 323 326 331 333 343 343 342 341 340 339
329 338 343 347 349 350 350 350 350 350 351 350 349 348 346 340 335 335 336 336 335 334 331 330 326 323 320 318 316 315 317 320 315 320 321 323 329 336 335 334 335 336 337
326 339 343 341 344 347 349 349 348 349 350 350 349 348 344 339 336 333 333 334 334 333 329 328 323 321 319 316 314 313 315 318 311 317 316 317 332 333 333 334 334 333 334
325 337 340 342 342 340 343 344 345 346 347 348 348 347 342 339 338 334 333 333 334 331 328 325 322 320 317 314 311 311 314 317 303 310 314 313 327 327 328 328 329 330 330
322 328 335 338 339 340 341 337 339 341 342 343 342 337 334 334 334 331 330 332 332 328 327 323 321 319 316 312 308 306 311 311 300 306 308 313 322 323 323 325 326 326 327
321 324 327 333 335 337 336 335 333 335 337 336 333 330 327 326 326 326 325 330 330 328 326 323 320 318 313 308 305 306 306 296 298 303 305 316 317 318 319 320 322 324 325
316 320 325 327 331 333 338 335 332 333 334 331 328 326 325 323 322 322 320 325 327 327 326 322 320 316 307 296 295 302 295 295 295 299 304 313 313 316 318 319 320 323 324
315 319 324 326 328 330 333 331 333 332 328 328 327 327 327 325 320 318 315 317 316 317 314 314 311 304 301 298 295 295 295 294 294 298 306 312 314 314 316 318 322 323 322
311 317 322 326 327 327 329 328 331 331 329 328 331 328 326 324 316 312 312 312 310 308 307 304 302 299 296 296 296 295 294 293 293 297 302 311 314 315 317 322 323 321 323
305 311 319 323 326 328 326 325 327 329 329 328 324 326 327 324 318 310 310 311 308 307 305 302 299 296 295 295 295 295 294 294 294 298 298 311 315 317 320 321 322 323 324
305 306 314 322 325 326 327 324 323 324 324 323 322 323 323 322 317 311 310 310 309 306 304 301 296 295 294 294 294 294 293 293 294 295 300 305 316 318 318 322 323 324 325
302 304 307 319 322 324 323 323 322 322 322 324 323 321 320 319 317 311 308 308 309 306 302 297 295 294 293 294 293 293 293 293 293 295 299 304 305 313 319 320 323 326 324
299 301 305 314 318 318 319 320 322 321 320 320 321 322 319 317 316 312 307 307 306 303 300 295 294 293 292 292 290 291 291 292 293 294 296 302 303 302 308 313 319 324 320
299 299 301 304 314 316 316 318 319 319 318 318 318 317 318 315 313 309 306 305 304 300 296 295 292 292 290 290 290 290 290 291 291 294 294 299 302 299 299 306 306 308 317
297 299 300 301 304 311 313 313 313 314 314 315 315 317 315 315 310 306 304 304 301 297 294 293 291 290 290 290 292 290 289 290 290 289 292 297 295 297 297 295 295 298 309
295 296 297 298 299 302 305 307 308 309 310 311 314 315 314 314 311 304 302 302 298 296 294 292 291 290 289 288 288 287 287 289 289 289 291 293 293 292 292 292 293 294 298
293 294 295 295 297 298 301 302 304 305 305 309 310 311 312 311 310 305 301 299 296 293 292 292 291 289 289 289 286 285 283 285 287 288 289 291 290 290 290 291 290 292 295
291 292 293 294 295 295 298 300 300 301 300 299 301 305 306 308 308 307 303 298 295 294 293 292 291 290 288 288 288 287 283 283 283 286 287 288 289 287 288 289 289 290 292
290 291 292 293 293 294 294 294 294 295 294 295 296 299 302 303 303 303 303 299 296 293 292 291 292 290 289 287 286 290 288 287 283 282 284 286 287 287 286 287 287 288 290
290 289 290 290 291 292 292 292 292 291 292 293 294 294 295 298 300 300 300 298 297 295 292 291 290 289 289 289 287 285 285 286 286 283 281 282 284 285 287 287 286 286 288
288 288 288 288 289 290 291 290 290 289 289 289 290 290 291 293 295 296 297 297 296 294 292 291 290 289 290 289 288 287 286 286 285 284 282 280 281 283 286 286 286 286 287

GFSSE_sfc_thetae_036.txt.gz
Theta_e
331 340 351 355 355 356 355 354 353 353 350 349 350 350 351 350 352 352 351 350 349 348 345 344 342 342 341 340 341 342 344 346 349 349 348 347 347 347 349 349 350 349 351
334 343 349 354 355 356 355 355 353 352 350 350 349 348 348 348 348 350 349 349 346 344 343 343 342 340 338 338 337 338 339 340 341 342 347 347 346 345 346 347 350 348 350
337 344 348 351 354 354 353 352 352 351 349 349 348 347 347 346 345 347 348 349 347 344 341 341 340 337 335 335 335 335 335 335 335 335 339 339 340 344 345 345 346 346 348
338 343 346 348 352 353 352 352 351 351 350 348 348 348 347 347 348 348 348 348 345 343 339 338 335 334 332 332 331 331 331 332 332 337 333 340 341 345 344 345 343 342 342
338 343 346 347 352 352 352 351 351 351 351 350 349 349 347 345 344 347 345 347 343 338 338 335 332 330 328 327 327 327 328 330 333 333 333 336 338 344 344 342 340 339 341
337 342 344 348 352 352 351 351 351 350 350 350 350 347 345 343 341 339 342 342 339 335 334 332 329 326 323 322 322 323 325 330 329 324 325 331 332 341 338 340 339 339 337
334 338 342 347 350 351 350 350 350 350 349 349 349 348 346 342 339 338 337 337 335 335 332 330 326 323 319 318 316 319 321 326 321 320 321 325 329 337 335 333 335 336 335
333 336 342 340 343 347 348 348 348 349 349 349 348 347 346 341 335 334 334 335 336 334 331 328 323 320 317 315 315 316 318 319 317 316 316 319 333 334 335 333 333 333 334
329 335 339 342 341 339 342 343 345 347 348 348 347 347 344 339 338 335 333 333 334 333 330 326 322 319 316 313 313 314 319 315 309 310 314 314 329 329 329 330 330 330 330
322 333 335 338 340 342 342 337 338 341 342 344 343 341 335 334 335 333 330 332 334 331 329 325 321 319 316 311 309 310 313 310 305 306 309 314 325 324 324 325 326 327 327
319 325 331 336 337 338 339 337 334 336 337 337 336 332 328 328 328 326 326 329 331 330 328 324 321 319 314 308 306 309 304 297 301 302 306 317 318 319 319 320 322 324 325
314 318 326 331 334 335 340 336 335 338 338 334 332 328 326 324 323 323 322 326 329 327 328 324 321 317 306 294 294 302 294 294 298 298 303 313 314 317 319 320 321 323 325
311 316 322 328 331 332 335 334 333 332 329 328 327 324 324 325 322 318 317 318 317 319 317 318 313 304 298 296 294 294 293 293 295 297 305 313 315 316 317 318 321 324 323
308 313 319 324 328 329 332 331 333 333 330 328 328 326 326 324 321 318 313 312 312 311 309 306 304 301 296 295 294 293 293 292 294 296 299 311 314 317 317 320 324 323 322
301 304 313 321 326 328 328 328 330 331 331 328 325 325 326 324 320 316 311 310 309 307 305 303 302 297 294 294 294 293 293 292 293 297 297 309 313 318 320 323 323 322 324
299 299 304 317 324 326 327 324 327 328 328 326 325 325 323 324 321 316 310 309 307 306 304 302 300 294 293 293 293 293 293 292 292 296 298 304 315 318 321 322 323 325 325
298 299 300 312 321 323 325 323 322 324 324 324 324 321 320 320 318 316 312 309 308 305 303 300 297 293 292 292 291 292 292 292 292 294 299 303 305 315 320 322 324 325 326
296 297 300 306 315 318 319 320 320 320 319 320 320 319 319 318 315 313 312 311 307 305 302 298 294 292 291 290 289 290 290 291 292 293 296 301 303 304 311 315 321 326 325
295 296 298 300 307 314 316 317 318 317 317 317 318 318 319 319 315 314 311 311 309 304 299 297 292 292 290 289 290 289 289 289 291 293 293 298 301 301 301 308 308 311 324
294 295 296 298 299 305 311 312 312 313 313 314 318 319 319 318 315 313 311 309 306 303 296 294 292 290 290 289 291 289 287 288 289 289 291 296 298 299 298 298 297 301 313
292 293 294 294 295 299 301 304 307 307 309 310 315 317 317 316 312 310 308 306 303 302 299 296 291 290 289 288 287 286 286 287 288 288 289 292 294 295 296 295 294 296 298
290 291 292 293 293 295 297 298 300 300 300 305 306 310 311 313 312 309 306 304 301 297 294 292 291 289 289 288 286 284 283 285 286 288 288 290 291 291 291 292 292 293 294
288 289 291 291 292 292 294 295 296 296 296 296 297 299 303 306 307 308 305 302 300 298 296 294 291 290 289 287 287 286 281 282 282 285 286 287 289 289 288 289 290 290 292
287 287 289 290 291 292 292 292 291 290 290 291 292 293 295 297 298 300 302 301 299 297 295 294 293 292 289 287 286 288 286 285 283 282 284 285 286 288 287 287 287 288 289
287 286 286 288 289 289 290 290 289 288 289 289 290 290 291 292 292 292 293 295 298 297 295 294 292 291 291 290 286 285 284 285 285 283 282 282 284 286 287 288 287 287 288
285 285 285 286 287 288 287 287 287 287 287 287 287 287 288 289 290 289 290 290 291 292 293 294 292 291 291 291 290 287 286 285 284 284 282 282 282 284 286 286 286 287 287

GFSSE_sfc_thetae_042.txt.gz
Theta_e
330 334 351 355 354 355 354 353 352 352 350 350 352 352 352 352 351 351 350 348 346 343 341 342 342 342 342 343 345 348 348 348 347 347 347 347 348 349 350 349 349 347 350
330 336 349 354 355 355 355 353 352 351 350 350 351 351 352 352 351 350 348 346 344 343 342 340 340 340 339 340 342 343 344 342 343 344 344 345 347 346 348 346 347 346 350
332 339 347 352 355 355 354 354 352 351 350 349 349 349 349 350 349 347 345 347 343 342 342 339 338 337 336 337 337 338 338 337 338 340 342 337 338 344 344 344 344 344 346
333 341 345 348 354 355 354 353 352 351 351 349 347 347 347 345 346 346 346 345 343 341 340 337 336 334 333 333 333 334 334 339 340 338 337 338 339 343 342 341 341 341 340
334 339 343 347 354 354 353 352 352 351 351 349 347 346 346 346 346 347 346 345 340 338 338 335 333 330 329 329 329 331 334 338 336 335 333 334 335 340 341 339 338 337 338
333 338 342 348 352 353 351 351 351 351 351 350 348 348 346 345 346 343 340 342 340 335 332 332 330 327 324 323 324 328 335 334 329 325 326 329 330 339 338 338 336 337 335
330 336 339 346 350 351 351 350 350 350 351 350 350 349 346 343 341 337 336 338 337 334 331 331 328 324 321 318 320 323 332 329 321 321 324 326 331 337 336 334 333 333 333
330 334 337 338 343 347 349 349 349 349 349 348 348 348 346 343 340 335 334 334 334 332 331 330 326 322 318 316 317 320 326 323 318 316 317 320 333 335 335 331 333 332 334
326 331 334 338 340 338 342 343 345 346 346 346 346 346 345 342 339 337 336 334 332 332 331 329 324 321 317 314 316 319 320 320 310 311 315 315 328 330 330 331 331 330 330
323 328 330 333 341 340 339 336 338 341 342 342 341 339 336 334 334 334 331 333 332 333 330 328 323 320 317 312 312 315 317 313 305 307 309 312 325 325 326 327 327 327 327
316 319 326 330 337 340 342 335 331 334 336 337 336 333 330 329 328 327 327 330 333 334 330 328 323 320 316 310 311 309 305 300 300 301 304 316 320 320 320 320 322 324 325
305 313 319 327 335 337 339 340 337 334 335 337 335 333 330 329 328 326 322 326 330 329 330 327 323 318 304 292 292 298 292 295 297 297 300 315 316 318 319 320 321 322 324
296 301 305 319 332 335 336 336 337 338 337 336 335 333 329 325 325 324 323 323 322 319 317 318 311 305 296 292 292 292 291 291 293 295 299 312 316 318 319 319 320 323 323
295 296 297 299 316 332 335 336 335 335 332 329 332 330 327 325 323 322 321 321 320 317 315 309 306 303 299 295 293 292 291 291 291 294 295 306 311 317 320 319 320 323 323
294 295 296 298 299 320 331 333 333 333 333 332 328 328 328 325 322 321 320 319 317 315 313 309 304 302 299 294 292 292 291 291 290 293 294 302 311 314 320 322 322 325 323
294 294 296 299 304 311 325 329 331 330 331 330 329 328 326 325 323 320 318 317 315 313 309 306 303 301 298 293 292 292 291 290 290 290 294 296 308 315 318 323 325 326 324
292 294 295 299 306 313 319 321 325 326 327 327 327 325 324 322 321 317 318 316 315 312 309 306 302 298 295 292 291 291 291 291 290 290 291 296 300 308 313 320 324 324 326
292 293 295 298 303 315 316 318 320 322 323 322 323 323 323 323 322 318 317 316 316 311 309 306 304 301 296 292 290 290 289 289 290 290 290 293 298 301 305 312 317 320 325
290 292 294 296 299 311 316 316 314 312 314 313 314 316 319 320 321 319 317 316 313 310 308 306 301 301 299 295 292 290 289 288 288 290 289 291 293 299 300 305 311 310 314
289 291 292 294 295 301 308 306 304 303 304 305 304 306 308 311 313 314 313 312 310 309 306 303 302 296 295 294 293 290 289 288 288 287 288 290 291 294 298 298 299 301 308
288 289 290 291 292 295 296 297 297 295 297 298 298 298 299 301 305 306 307 306 306 304 303 301 298 297 296 292 292 293 288 288 287 287 287 288 288 291 294 296 297 296 298
286 287 288 289 290 292 293 293 293 293 292 293 294 294 294 294 295 299 301 301 301 301 300 299 297 296 294 292 291 288 289 288 286 286 286 287 287 288 290 292 294 295 295
284 284 286 287 288 289 291 292 291 291 290 289 289 289 289 289 290 291 292 295 297 298 297 297 296 295 294 293 290 291 288 286 283 285 285 285 286 287 288 289 291 291 292
282 283 285 285 286 287 288 288 286 285 284 284 285 285 286 286 285 287 288 289 289 291 290 293 294 294 293 292 291 290 288 288 286 286 286 286 285 286 286 287 288 289 290
282 281 282 284 284 284 284 284 284 282 283 282 282 283 283 284 284 284 284 285 285 286 286 287 288 289 290 289 289 290 288 287 287 285 286 284 286 286 286 286 287 287 288
281 281 281 282 282 282 283 282 282 281 281 281 281 281 281 282 282 283 283 283 283 283 283 284 285 286 287 288 288 288 288 288 287 286 285 288 288 286 286 286 286 286 287

GFSSE_sfc_thetae_045.txt.gz
Theta_e
336 339 352 356 355 355 354 352 351 352 352 352 352 352 352 351 351 351 349 347 345 344 342 342 342 342 345 345 347 348 347 346 346 347 347 347 348 349 349 348 349 349 350
335 339 350 355 356 356 355 354 353 352 352 352 352 352 352 350 350 348 346 347 345 342 340 340 340 340 340 342 343 344 342 342 344 344 343 345 347 347 347 346 347 348 350
335 341 351 353 354 355 354 353 353 352 351 351 351 351 352 351 348 346 346 346 343 341 339 339 339 337 337 337 338 339 338 341 340 343 343 343 343 344 344 343 343 343 345
336 343 350 349 353 354 354 353 352 352 352 350 349 349 348 348 347 346 344 345 341 340 338 337 335 334 333 333 334 335 339 341 339 340 342 343 341 342 341 340 340 340 340
337 344 348 347 354 354 354 352 352 352 352 349 348 347 346 345 346 347 345 343 340 339 337 335 333 330 328 328 331 333 339 339 337 340 341 342 342 340 340 339 337 337 338
337 343 345 348 353 352 353 352 351 351 352 351 348 347 347 348 347 342 343 341 337 335 334 332 331 328 325 323 326 332 336 335 333 336 336 337 338 338 338 336 336 337 337
336 341 344 346 351 352 351 351 350 350 351 351 350 349 346 345 342 339 339 339 337 335 333 331 329 325 322 320 323 327 332 329 330 331 332 335 338 337 336 335 333 334 333
335 338 342 338 343 347 348 348 348 348 349 349 348 348 347 344 341 337 336 336 335 333 331 330 327 323 319 318 321 325 327 324 324 325 326 329 333 336 336 333 334 334 333
334 336 339 341 341 337 342 343 344 346 346 346 345 347 344 342 340 338 336 335 332 332 331 328 325 322 318 316 318 321 322 319 320 320 320 324 329 330 331 332 331 331 330
325 332 335 338 341 344 346 336 338 341 341 342 340 339 336 336 335 334 331 334 332 332 331 329 324 321 319 313 315 314 313 312 313 315 317 321 325 325 326 327 327 328 328
305 311 323 334 337 340 343 340 332 334 336 337 337 332 332 337 334 332 328 331 333 333 331 329 324 321 314 307 308 308 305 307 308 309 311 317 321 322 321 321 322 324 325
300 302 305 313 332 337 339 341 340 340 343 343 343 343 339 334 331 329 325 326 329 329 330 328 324 316 306 300 300 301 300 301 304 304 307 314 318 319 320 320 321 322 324
298 300 301 302 306 331 337 339 340 339 338 341 338 337 336 332 330 327 326 326 326 321 322 321 318 314 307 302 301 300 300 300 301 303 302 308 313 318 321 320 320 322 323
297 298 300 301 303 309 334 337 338 338 336 337 336 335 331 329 326 325 325 325 324 322 320 317 314 313 309 303 300 300 299 299 300 301 302 304 310 313 319 322 320 322 323
296 297 299 301 304 307 322 334 335 335 334 334 332 331 332 329 325 324 323 322 321 319 319 316 316 313 310 305 300 299 299 299 299 299 302 302 307 314 317 321 323 323 325
295 296 298 302 308 311 318 331 331 332 332 332 332 330 328 328 327 324 323 323 319 319 315 314 312 313 310 304 302 299 299 299 298 298 299 302 305 311 315 320 324 327 326
293 295 297 303 311 320 322 326 327 327 327 326 325 325 324 324 324 323 323 323 322 315 313 310 307 306 307 303 302 300 298 298 298 297 298 299 302 305 309 316 321 326 326
292 293 298 302 315 318 317 317 316 314 313 313 314 316 316 319 322 321 319 318 317 315 312 310 307 306 306 302 302 302 299 297 297 297 297 298 299 301 306 309 314 319 322
291 293 296 299 306 310 309 308 307 307 306 306 306 307 309 311 314 314 313 312 313 311 309 307 304 302 302 301 299 299 299 298 298 296 297 297 298 300 302 305 307 308 313
290 292 294 296 297 304 305 304 303 301 299 298 297 297 299 303 307 308 308 307 309 307 306 305 302 300 297 296 296 296 297 298 298 297 296 295 296 297 299 302 305 307 306
289 290 291 293 294 298 299 299 298 295 296 294 294 293 294 295 298 301 303 302 304 303 302 301 300 299 298 296 295 299 299 297 296 296 295 295 295 295 296 298 302 304 305
286 288 289 290 292 294 295 295 295 293 292 291 290 289 289 291 293 294 295 297 298 299 298 298 298 298 297 295 294 292 293 299 295 294 294 294 294 295 295 296 298 299 302
284 284 286 288 289 290 292 293 292 291 289 287 287 286 287 288 288 289 290 292 292 293 293 295 295 296 295 297 295 295 293 292 291 298 295 294 294 294 295 295 295 296 298
283 284 285 286 286 286 288 287 286 285 283 284 285 286 286 287 286 287 287 287 288 288 288 291 292 293 295 292 295 294 293 292 291 290 294 296 294 293 295 296 295 295 296
283 283 283 284 284 285 285 286 285 283 284 284 284 285 285 285 286 285 285 286 285 286 286 286 287 288 290 291 291 292 292 292 290 287 288 291 295 296 295 295 295 295 295
283 283 283 283 282 283 284 283 283 283 283 283 283 283 283 284 284 284 284 284 285 285 284 285 285 285 285 286 287 289 290 290 290 289 287 290 290 293 294 295 294 295 295

GFSSE_sfc_thetae_048.txt.gz
Theta_e
339 348 352 355 354 355 353 351 351 353 352 352 351 351 351 351 349 349 347 345 343 342 342 342 342 345 346 346 347 346 346 345 345 346 347 347 349 349 348 347 349 348 350
340 347 350 355 355 356 354 353 352 353 352 352 352 352 351 350 348 346 345 346 343 341 342 341 340 341 342 342 343 342 342 343 344 343 344 346 346 345 346 344 346 347 349
339 347 352 353 355 355 354 353 353 353 352 352 352 351 350 349 346 346 344 343 341 340 340 339 338 337 337 337 339 339 342 341 343 343 343 342 342 343 343 342 342 343 346
340 348 352 349 353 353 353 353 353 352 351 351 350 350 350 348 346 345 343 342 341 339 338 337 334 333 332 333 334 338 341 340 341 342 341 340 339 341 340 339 339 339 341
341 348 351 349 352 353 353 352 352 352 352 350 349 348 347 347 347 345 342 341 339 338 337 336 333 329 327 328 332 337 340 339 338 341 340 340 339 339 339 337 336 337 338
340 347 347 349 353 352 352 352 351 352 351 349 348 347 347 347 344 344 340 338 337 336 335 334 331 327 324 324 328 336 336 335 337 340 339 338 338 338 338 336 335 335 337
340 346 349 347 348 349 350 350 349 350 350 349 350 348 348 346 342 340 339 338 336 335 333 332 329 325 321 322 325 332 331 329 336 337 338 339 338 338 337 336 334 333 333
339 343 346 341 344 345 347 348 348 348 349 348 347 346 346 344 341 338 337 336 335 333 332 331 328 323 319 320 324 326 326 324 330 331 332 334 331 334 335 334 333 333 333
339 342 345 346 346 337 343 344 344 345 346 346 345 346 344 342 341 337 337 335 334 333 331 329 326 322 318 317 320 321 319 318 324 325 324 327 328 329 330 330 331 330 330
321 332 340 344 343 345 349 338 339 341 342 342 342 340 337 336 335 333 332 335 334 332 331 328 325 322 318 315 314 312 311 314 316 318 320 322 324 324 324 324 326 327 327
311 312 316 328 337 340 344 342 334 335 337 337 338 332 332 343 339 335 328 332 333 333 331 328 325 320 313 305 307 307 309 311 311 313 314 316 321 322 322 322 322 323 325
308 309 310 312 319 334 339 342 344 346 347 346 345 345 344 343 339 332 326 327 330 330 330 327 323 316 316 309 306 308 306 306 308 309 309 311 316 321 321 321 322 323 324
306 309 310 311 312 319 336 340 343 343 344 345 344 343 342 341 335 331 330 329 330 323 326 325 322 324 319 313 308 306 305 306 306 307 307 308 313 315 321 323 320 321 323
306 308 311 312 314 314 330 338 340 340 341 341 343 339 339 335 332 331 330 329 328 326 324 322 322 323 320 314 310 307 306 306 306 306 307 304 309 314 317 321 324 321 324
305 308 310 314 317 318 320 336 338 338 338 337 334 334 335 336 332 330 328 328 327 327 325 323 320 323 321 317 313 308 306 306 305 306 306 306 306 311 316 320 324 326 325
304 307 311 312 319 318 321 334 335 333 329 327 326 327 327 329 329 329 328 326 331 328 323 320 318 318 322 318 315 311 309 307 306 305 305 306 303 306 310 316 321 326 330
304 304 304 309 321 322 326 320 319 318 318 317 317 317 321 323 323 321 322 322 320 319 316 312 311 311 311 314 315 313 311 309 307 305 304 304 305 307 306 311 315 320 325
302 300 303 311 315 315 314 313 312 312 311 311 313 314 314 317 320 320 315 314 315 314 312 311 311 310 308 306 306 307 308 310 309 308 306 305 304 304 307 307 311 313 317
299 300 303 307 309 309 308 306 304 304 303 303 305 304 307 312 313 314 313 312 313 312 308 309 305 307 308 306 306 305 303 306 311 308 308 306 305 303 303 307 306 308 310
299 299 301 302 306 306 305 304 303 301 302 302 303 304 305 307 310 309 306 307 310 306 305 309 305 306 302 302 301 302 303 304 309 308 305 303 303 302 303 303 305 306 308
299 299 300 302 304 309 309 307 303 300 298 297 296 298 299 301 302 305 305 306 307 304 304 303 304 302 303 302 303 307 307 306 306 305 304 303 302 301 302 302 303 304 305
296 298 300 301 302 303 304 302 300 297 294 294 294 293 294 295 296 297 299 299 300 301 301 301 302 304 305 303 300 303 303 306 303 304 305 302 301 302 303 301 301 301 303
293 294 295 296 298 300 300 298 296 295 294 292 291 291 291 292 292 292 292 293 293 295 295 296 298 299 299 301 300 298 298 298 298 304 304 302 302 302 301 302 302 302 302
291 292 293 293 294 295 296 296 296 293 289 289 289 290 290 291 290 291 291 291 291 291 291 291 292 293 296 294 299 298 299 296 293 294 300 301 300 300 302 302 302 302 303
290 291 291 291 291 292 292 292 291 289 289 289 290 289 289 290 290 289 290 290 289 289 290 290 290 290 290 289 289 291 294 296 296 293 291 294 297 298 300 300 300 301 301
289 289 289 289 288 289 290 290 289 289 289 289 289 288 288 288 288 288 288 288 288 288 288 288 289 288 288 288 288 289 288 287 287 287 287 288 289 292 293 295 297 299 301